Regional Weather Roundup
Issued by NWS State College, PA

Home | Current Version | Previous Version | Text Only | Print | Product List | Glossary Off
Versions: 1 2 3 4 5 6 7 8 9 10 11 12 13 14 15 16 17 18 19 20 21 22 23 24 25 26 27 28 29 30 31 32 33 34 35 36 37 38 39 40 41 42 43 44 45 46 47 48 49 50

807
ASUS41 KCTP 301203
RWRCTP

REGIONAL WEATHER ROUNDUP
NATIONAL WEATHER SERVICE STATE COLLEGE PA
800 AM EDT FRI SEP 30 2016

Note: "fair" indicates few or no clouds below 12,000 feet with no
significant weather and/or obstructions to visibility.

* = STATION THAT DOES NOT REPORT PRECIPITATION /E.G. RAIN...SNOW...ETC/
    THUNDER OR FOG.

PAZ002>004-007>009-013>016-020>023-029>032-301300-
WESTERN PENNSYLVANIA

CITY           SKY/WX    TMP DP  RH WIND       PRES   REMARKS
ERIE           RAIN      58  56  93 NE7       30.23R FOG
MEADVILLE      CLOUDY    55  52  89 E7        30.21F
FRANKLIN*        N/A     54  50  87 E6        30.23S
NEW CASTLE     CLOUDY    56  55  97 E9        30.20S
BEAVER COUNTY  NOT AVBL
BUTLER*        CLOUDY    55  52  88 E9        30.21S
PITTSBURGH INT CLOUDY    57  56  96 NE7       30.17R
PITTSBURGH     CLOUDY    57  54  89 VRB5      30.16R
INDIANA*       CLOUDY    55  54  94 E8        30.22F
LATROBE        MOCLDY    59  55  88 NE14      30.17F
WASHINGTON CO* CLOUDY    55  54  94 NE8       30.15S
$$

PAZ004>006-010>012-017>019-024>028-033>037-041-042-045-046-049>053-301300-
CENTRAL PENNSYLVANIA

CITY           SKY/WX    TMP DP  RH WIND       PRES   REMARKS
BRADFORD       CLOUDY    52  52 100 E9        30.27S
DUBOIS         CLOUDY    53  49  86 E12       30.22S
CLEARFIELD     CLOUDY    52  52 100 E10       30.26R
JOHNSTOWN      CLOUDY    53  52  96 E10G18    30.20R FOG
ALTOONA        LGT RAIN  53  53 100 NE6       30.25R FOG
STATE COLLEGE  DRIZZLE   52  52 100 NE8       30.26S FOG
WILLIAMSPORT   LGT RAIN  54  52  93 NE3       30.28S
SELINSGROVE    LGT RAIN  54  54 100 N5        30.28R
FT INDIANTOWN  CLOUDY    53  52  97 NE7       30.25S
CAPITAL CITY   RAIN      55  51  86 E12       30.25S FOG
HARRISBURG     LGT RAIN  55  53  93 E9        30.24R FOG
YORK           LGT RAIN  54  54 100 NE7       30.23R
$$

PAZ038>040-043-044-047-048-054-055-060>062-067>071-301300-
EASTERN PENNSYLVANIA

CITY           SKY/WX    TMP DP  RH WIND       PRES   REMARKS
SCRANTON       LGT RAIN  51  47  86 E7        30.31S FOG
MOUNT POCONO   RAIN      47  45  93 E17G28    30.31S FOG
ALLENTOWN      LGT RAIN  52  48  87 NE15      30.29S FOG
QUAKERTOWN*    CLOUDY    54  52  94 NE9       30.28R
READING        RAIN      53  50  89 NE9       30.25S
LANCASTER      CLOUDY    56  54  93 E13G24    30.24R
COATESVILLE    LGT RAIN  54  52  94 NE13      30.23S
POTTSTOWN      LGT RAIN  53  52  96 NE13G21   30.27R
BLUE BELL      CLOUDY    52  52 100 NE10G17   30.24S
DOYLESTOWN     HVY RAIN  54  53  97 NE13G21   30.26S FOG
WILLOW GROVE   NOT AVBL
NORTH PHILA    LGT RAIN  57  55  93 NE16      30.26R
PHILADELPHIA   HVY RAIN  57  56  96 NE16      30.23R VSB 1
$$




USA.gov is the U.S. government's official web portal to all federal, state and local government web resources and services.